SCP
0 0 0 0 0 0 0 0 0 0 0 0 0 0 0 0 0 0 0 0 0 0 0 0 0 0 0 0 0 0 0 0 0 0 0 0 0 0 0 0 0 0 0 0
0 0 0 0 0 0 0 0 0 0 0 0 0 0 0 0 0 0 0 0 0 0 0 0 0 0 0 0 0 0 0 0 0 0 0 0 0 0 0 0 0 0 0 0
0 0 0 0 0 0 0 0 0 0 0 0 0 0 0 0 0 0 0 0 0 0 0 0 0 0 0 0 0 0 0 0 0 0 0 0 0 0 0 0 0 0 0 0
0 0 0 0 0 0 0 0 0 0 0 0 0 0 0 0 0 0 0 0 0 0 0 0 0 0 0 0 0 0 0 0 0 0 0 0 0 0 0 0 0 0 0 0
0 0 0 0 0 0 0 0 0 0 0 0 0 0 0 0 0 0 0 0 0 0 0 0 0 0 0 0 0 0 0 0 0 0 0 0 0 0 0 0 0 0 0 0
0 0 0 0 0 0 0 0 0 0 0 0 0 0 0 0 0 0 0 0 0 0 0 0 0 0 0 0 0 0 0 0 0 0 0 0 0 0 0 0 0 0 0 0
0 0 0 0 0 0 0 0 0 0 0 0 0 0 0 0 0 0 0 0 0 0 0 0 0 0 0 0 0 0 0 0 0 0 0 0 0 0 0 0 0 0 0 0
-0 0 0 0 0 0 0 0 0 0 0 0 0 0 0 0 0 0 0 0 0 0 0 0 0 0 0 0 0 0 0 0 0 0 0 0 0 0 0 0 0 0 0 0
0 -0 0 0 0 0 0 0 0 0 0 0 0 0 0 0 0 0 0 0 0 0 0 0 0 0 0 0 0 0 0 0 0 0 0 0 0 0 0 0 0 0 0 0
-0 0 -0 0 0 0 0 0 0 0 0 0 0 0 0 0 0 0 0 0 0 0 0 0 0 0 0 0 0 0 0 0 0 0 0 0 0 0 0 0 0 0 0 0
0 -0 0 0 0 0 0 0 0 0 0 0 0 0 0 0 0 0 0 0 0 0 0 0 0 0 0 0 0 0 0 0 0 0 0 0 0 0 0 0 0 0 0 0
0 0 0 0 0 0 0 0 0 0 0 0 0 0 0 0 0 0 0 0 0 0 0 0 0 0 0 0 0 0 0 0 0 0 0 0 0 0 0 0 0 0 0 0
0 0 0 0 0 0 0 0 0 0 0 0 0 0 0 0 0 0 0 0 0 0 0 0 0 0 0 0 0 0 0 0 0 0 0 0 0 0 0 0 0 0 0 0
0 0 0 0 0 0 0 0 0 0 0 0 0 0 0 0 0 0 0 0 0 0 0 0 0 0 0 0 0 0 0 0 0 0 0 0 0 0 0 0 0 0 0 0
-0 0 0 0 0 0 0 0 -0 0 0 0 0 0 0 0 0 0 0 0 0 0 0 0 0 0 0 0 0 0 0 0 0 0 0 0 0 0 0 0 0 0 0 0
-0 0 0 0 0 0 0 0 -0 -0 -0 -0 -0 0 0 0 -0 0 0 0 0 0 0 0 0 0 0 0 0 0 0 0 0 0 0 0 0 0 0 0 0 0 0 0
0 0 0 -0 -0 0 0 0 0 0 0 -0 -0 -0 -0 -0 0 -0 -0 -0 -0 0 0 0 0 0 0 0 0 0 0 0 0 0 0 0 0 0 0 0 0 0 0 0
0 0 0 0 -0 -0 -0 0 0 0 -0 0 0 0 0 0 0 0 0 0 0 0 0 0 0 0 0 0 0 0 0 0 0 0 0 0 0 0 0 0 0 0 0 0
0 0 0 0 -0 -0 0 0 0 0 0 0 0 0 0 0 0 0 0 0 0 0 0 0 0 0 0 0 0 0 0 0 0 0 0 0 0 0 0 0 0 0 0 0
0 0 0 0 0 0 0 0 0 0 0 0 0 0 0 0 0 0 0 0 0 0 0 0 0 0 0 0 0 0 0 0 0 0 0 0 0 0 0 0 0 0 0 0
0 0 0 0 0 -0 -0 0 0 0 0 0 0 0 0 0 0 0 0 0 0 0 0 0 0 0 0 0 0 0 0 0 0 0 0 0 0 0 0 0 0 0 0 0
0 0 0 0 0 0 0 0 0 0 -0 -0 -0 -0 -0 0 0 0 0 0 0 0 0 0 0 0 0 0 0 0 0 0 0 0 0 0 0 0 0 0 0 0 0 0
0 0 0 0 0 0 0 0 0 0 -0 -0 -0 -0 -0 -0 0 0 0 -0 0 0 0 0 0 0 0 0 0 0 0 0 0 0 0 0 0 0 0 0 0 0 0 0
0 0 0 0 0 0 0 0 0 0 0 0 0 -0 -0 -0 -0 -0 0 0 0 0 0 0 0 0 0 0 0 0 0 0 0 0 0 0 0 0 0 0 0 0 0 0
0 0 0 0 0 0 0 0 0 0 0 0 0 -0 -0 -0 -0 -0 0 0 0 0 0 0 0 0 0 0 0 0 0 0 0 0 0 0 0 0 0 0 0 0 0 0
0 0 0 0 0 0 0 0 0 0 0 0 0 0 0 0 0 -0 -0 0 0 0 0 0 0 0 0 0 0 0 0 0 0 0 0 0 0 0 0 0 0 0 0 0
Wind_Speed_500mb
11 6 15 24 29 11 11 9 11 4 6 9 17 17 23 29 29 36 43 45 49 53 38 38 34 50 55 65 63 65 68 68 63 62 56 50 44 42 35 31 26 24 21 22
5 18 20 15 18 21 25 19 18 10 7 8 10 23 19 18 20 49 59 61 63 59 53 51 48 49 61 68 68 71 73 68 68 59 53 54 47 42 34 29 26 24 22 22
16 13 3 16 19 14 20 30 10 16 7 8 7 24 15 19 48 53 67 74 73 73 67 64 62 63 67 71 74 74 76 74 65 64 60 54 47 43 38 33 27 23 22 21
20 25 35 24 17 19 26 12 15 14 7 10 4 21 12 12 23 22 54 60 79 80 76 76 73 71 75 72 72 69 69 71 68 66 59 52 53 47 38 31 26 21 19 17
12 17 9 10 23 18 18 7 8 12 9 8 7 2 12 18 31 20 22 59 77 69 71 73 71 68 70 69 70 68 67 70 67 63 56 54 47 40 34 29 23 19 15 13
34 44 11 8 6 7 10 9 12 8 8 0 29 20 23 16 15 13 13 58 68 71 63 58 58 58 66 65 69 69 66 68 67 65 61 53 45 40 35 29 23 19 15 12
10 12 10 15 12 5 8 9 3 5 5 17 16 13 42 10 12 13 20 43 64 58 58 57 61 62 71 74 72 69 69 72 68 62 57 49 42 36 31 27 23 18 13 8
8 14 5 6 22 14 22 21 11 14 11 10 1 18 24 8 27 36 32 38 48 58 60 60 65 67 74 77 74 68 69 70 65 59 53 47 41 35 30 25 21 15 10 5
9 11 7 12 11 5 3 14 12 9 2 3 8 13 18 11 9 1 11 38 55 60 55 62 65 73 79 75 69 66 67 66 61 56 50 43 36 32 28 23 18 12 8 4
9 13 11 4 7 11 16 10 3 6 9 12 9 9 12 11 12 4 9 19 41 47 52 61 69 76 72 66 64 64 64 62 58 50 43 38 35 31 27 22 17 12 8 4
22 10 10 7 9 10 8 7 9 9 7 5 3 9 7 11 14 14 13 29 45 50 55 61 64 65 62 61 63 63 61 58 53 46 41 38 35 31 26 22 16 12 9 6
12 9 18 28 14 4 7 18 22 8 6 6 5 5 9 13 15 5 10 34 41 45 50 53 55 55 56 63 62 62 61 54 47 43 42 38 34 30 25 20 17 14 10 6
16 5 13 22 8 4 7 7 9 7 4 9 5 3 5 18 26 36 12 28 42 46 45 47 50 55 61 64 62 60 55 49 46 45 41 38 34 29 24 22 18 12 8 5
32 11 11 7 25 27 24 9 8 7 7 5 17 24 22 27 26 33 19 2 39 49 52 54 52 55 61 64 62 57 52 47 47 45 40 36 32 29 26 21 17 13 8 4
8 12 23 38 37 14 19 28 24 21 21 14 7 15 32 25 20 33 30 7 14 36 46 52 57 58 60 59 57 52 47 48 47 44 41 36 34 30 26 21 17 13 9 5
8 13 28 33 22 27 41 44 27 28 30 25 32 43 31 35 18 28 28 35 11 29 39 39 53 54 58 61 57 51 49 50 49 44 41 38 35 31 27 23 18 15 10 7
8 6 3 22 23 20 16 11 6 12 19 25 26 38 24 14 26 32 38 31 31 26 45 53 51 55 56 58 55 48 50 51 52 46 45 44 39 34 28 25 21 17 12 9
18 5 8 13 9 6 18 15 12 14 9 27 27 30 30 46 52 52 35 21 30 30 31 51 58 53 60 55 52 58 58 55 55 59 56 49 44 36 32 28 22 19 14 10
25 17 8 6 10 16 26 21 11 12 9 28 29 36 54 76 34 23 64 53 38 32 40 48 46 55 54 61 72 68 63 63 64 64 59 55 47 40 35 30 26 19 14 10
5 15 7 4 7 8 9 15 38 22 13 22 31 33 37 58 23 16 77 65 51 41 33 25 27 42 59 69 72 73 73 72 72 69 66 57 48 42 39 33 25 18 13 9
9 9 6 12 10 10 7 17 29 9 15 39 26 37 47 26 33 62 75 68 58 56 44 33 26 24 35 50 71 77 82 84 71 70 66 58 53 49 42 34 26 18 10 8
10 6 9 4 3 15 11 23 6 18 41 33 34 40 37 47 62 66 72 73 68 63 57 50 48 33 23 34 56 79 88 82 70 70 70 64 59 54 45 34 27 17 13 13
7 13 10 16 12 20 50 43 68 51 44 55 61 54 38 57 64 65 68 67 70 64 58 53 51 51 36 30 44 68 88 82 75 76 76 69 63 56 44 35 25 18 16 15
11 33 14 26 36 36 51 67 62 49 56 59 51 37 54 51 56 70 70 66 69 64 60 52 50 50 49 38 40 56 69 80 82 81 80 75 69 56 45 34 23 22 17 14
23 11 30 26 35 57 58 65 64 53 47 45 47 54 57 58 72 72 72 66 65 70 69 54 50 48 45 42 45 46 58 69 83 85 86 80 67 54 42 30 26 22 15 13
41 39 25 30 57 42 51 70 73 69 71 65 63 65 66 65 72 72 73 71 65 64 68 53 46 40 32 39 42 44 53 61 74 90 89 78 65 52 38 32 28 23 16 14
Wind_Direction_500mb
213 190 212 202 209 209 205 216 230 269 245 164 226 248 253 255 233 237 234 223 217 220 219 216 212 202 202 212 209 209 209 212 213 205 204 200 216 218 217 225 236 238 233 243
301 246 239 231 226 229 245 255 256 271 191 186 263 256 248 248 232 227 229 226 222 223 216 212 212 205 204 206 211 210 211 214 215 218 214 213 220 212 217 223 223 225 239 260
210 230 49 221 249 233 230 231 213 225 201 251 354 274 241 241 237 238 232 234 230 224 215 211 208 203 207 208 212 210 208 214 209 214 200 197 205 208 211 214 217 229 247 263
249 243 250 257 233 220 254 200 188 207 125 238 174 272 247 229 236 221 227 220 228 228 227 218 207 203 206 208 212 210 209 206 201 206 207 224 215 208 212 212 218 229 244 251
273 356 349 258 240 192 246 197 205 200 163 82 234 346 258 226 237 229 222 219 220 217 216 207 208 210 206 208 204 203 203 202 205 207 211 203 203 204 208 210 219 225 231 243
267 289 270 258 326 329 84 28 28 60 105 237 229 184 257 210 211 237 213 225 221 208 204 207 208 205 200 198 197 197 197 196 200 198 203 204 203 203 203 209 212 212 216 229
294 248 221 191 251 338 105 103 234 234 226 233 172 179 247 251 264 231 228 228 220 207 206 199 195 195 193 193 192 195 197 193 193 193 192 193 197 201 202 203 200 200 207 228
281 325 57 273 230 208 196 188 201 217 195 229 70 207 243 236 247 250 255 245 205 191 192 192 194 193 192 192 192 193 194 191 187 187 187 189 193 196 194 190 189 190 196 211
299 252 330 62 347 39 218 237 286 323 173 240 223 275 294 235 249 116 151 166 173 178 183 187 188 189 189 189 192 196 190 186 182 184 187 188 190 186 183 182 181 182 186 210
306 289 228 200 145 174 219 325 273 201 228 238 237 259 244 334 281 278 176 160 167 173 181 187 187 186 188 194 196 191 186 184 182 184 186 187 182 178 178 178 177 180 182 174
297 245 300 345 215 210 154 246 241 284 250 259 221 260 243 299 309 239 206 183 173 178 184 184 184 187 193 194 189 184 184 184 183 185 185 182 179 178 177 176 175 171 169 157
304 295 287 260 244 347 274 220 209 234 238 242 324 260 340 1 352 313 209 185 182 184 183 184 188 193 192 189 187 185 186 187 188 186 182 181 181 178 177 174 173 170 153 117
333 306 325 322 352 39 245 295 261 277 268 238 293 220 16 33 23 23 29 176 181 181 185 189 192 193 189 189 190 189 189 189 189 185 184 183 181 180 179 179 171 158 142 123
3 320 285 331 317 306 298 305 298 257 264 268 242 260 242 24 15 354 6 190 178 177 180 183 191 194 193 192 192 192 192 194 190 188 187 186 184 185 181 174 168 167 169 175
31 284 310 314 311 319 314 328 302 285 293 269 333 304 292 303 318 327 309 40 194 185 185 189 195 199 197 197 198 198 199 195 193 191 190 189 188 186 183 180 180 187 194 207
283 275 302 282 300 317 321 305 271 256 258 260 277 284 284 282 244 248 258 291 265 211 202 218 209 209 206 203 203 204 204 198 196 195 194 193 193 192 187 185 195 204 214 228
236 240 301 280 291 314 305 256 323 321 290 281 278 279 303 264 231 241 241 254 256 239 220 214 227 222 219 217 213 213 205 200 200 200 200 200 196 193 191 196 202 213 218 232
241 214 241 265 3 233 237 257 283 272 333 21 12 357 354 341 273 255 261 256 253 265 252 236 238 232 232 226 234 227 217 211 211 207 203 200 198 194 197 200 206 214 223 238
221 238 243 205 213 280 308 295 339 307 55 27 4 350 348 347 324 64 6 357 358 338 297 273 260 252 226 236 233 231 218 216 212 209 205 203 196 195 198 199 206 213 223 239
349 219 193 227 229 295 272 359 319 291 241 16 3 357 353 349 355 329 332 351 353 355 345 335 285 264 249 239 235 230 217 215 214 211 209 201 194 195 196 198 200 209 220 233
336 344 194 268 276 256 250 325 335 278 331 318 350 338 331 327 312 312 324 331 335 341 344 339 323 288 255 243 233 228 220 214 217 215 208 199 195 193 194 198 203 209 231 266
271 240 265 60 50 297 232 344 346 290 303 301 321 319 304 314 317 323 325 328 327 327 323 327 328 307 286 251 232 227 226 222 215 215 206 199 195 193 198 201 207 219 247 277
245 203 240 189 224 268 292 282 287 284 272 295 303 306 298 313 313 317 315 319 324 321 319 316 313 315 296 268 244 233 232 221 214 212 204 199 195 196 200 206 212 229 249 276
255 252 257 273 266 266 274 283 284 286 285 287 293 288 304 299 307 310 310 310 318 323 320 317 308 306 298 283 259 246 233 224 217 211 202 198 196 196 200 205 221 237 246 270
255 257 255 261 273 272 272 275 282 289 289 285 285 293 294 297 298 299 299 307 309 316 322 310 302 297 293 278 265 244 233 222 218 211 202 196 194 198 202 215 231 238 238 265
251 250 256 258 261 264 272 279 282 283 288 288 286 289 285 282 285 291 292 291 298 306 314 303 292 288 283 275 259 237 224 218 210 202 198 193 195 198 209 221 230 224 230 251
Wind_Speed_850mb
11 6 15 24 29 11 11 9 11 4 6 9 17 17 23 29 29 36 43 45 49 53 38 38 34 50 55 65 63 65 68 68 63 62 56 50 44 42 35 31 26 24 21 22
5 18 20 15 18 21 25 19 18 10 7 8 10 23 19 18 20 49 59 61 63 59 53 51 48 49 61 68 68 71 73 68 68 59 53 54 47 42 34 29 26 24 22 22
16 13 3 16 19 14 20 30 10 16 7 8 7 24 15 19 48 53 67 74 73 73 67 64 62 63 67 71 74 74 76 74 65 64 60 54 47 43 38 33 27 23 22 21
20 25 35 24 17 19 26 12 15 14 7 10 4 21 12 12 23 22 54 60 79 80 76 76 73 71 75 72 72 69 69 71 68 66 59 52 53 47 38 31 26 21 19 17
12 17 9 10 23 18 18 7 8 12 9 8 7 2 12 18 31 20 22 59 77 69 71 73 71 68 70 69 70 68 67 70 67 63 56 54 47 40 34 29 23 19 15 13
34 44 11 8 6 7 10 9 12 8 8 0 29 20 23 16 15 13 13 58 68 71 63 58 58 58 66 65 69 69 66 68 67 65 61 53 45 40 35 29 23 19 15 12
10 12 10 15 12 5 8 9 3 5 5 17 16 13 42 10 12 13 20 43 64 58 58 57 61 62 71 74 72 69 69 72 68 62 57 49 42 36 31 27 23 18 13 8
8 14 5 6 22 14 22 21 11 14 11 10 1 18 24 8 27 36 32 38 48 58 60 60 65 67 74 77 74 68 69 70 65 59 53 47 41 35 30 25 21 15 10 5
9 11 7 12 11 5 3 14 12 9 2 3 8 13 18 11 9 1 11 38 55 60 55 62 65 73 79 75 69 66 67 66 61 56 50 43 36 32 28 23 18 12 8 4
9 13 11 4 7 11 16 10 3 6 9 12 9 9 12 11 12 4 9 19 41 47 52 61 69 76 72 66 64 64 64 62 58 50 43 38 35 31 27 22 17 12 8 4
22 10 10 7 9 10 8 7 9 9 7 5 3 9 7 11 14 14 13 29 45 50 55 61 64 65 62 61 63 63 61 58 53 46 41 38 35 31 26 22 16 12 9 6
12 9 18 28 14 4 7 18 22 8 6 6 5 5 9 13 15 5 10 34 41 45 50 53 55 55 56 63 62 62 61 54 47 43 42 38 34 30 25 20 17 14 10 6
16 5 13 22 8 4 7 7 9 7 4 9 5 3 5 18 26 36 12 28 42 46 45 47 50 55 61 64 62 60 55 49 46 45 41 38 34 29 24 22 18 12 8 5
32 11 11 7 25 27 24 9 8 7 7 5 17 24 22 27 26 33 19 2 39 49 52 54 52 55 61 64 62 57 52 47 47 45 40 36 32 29 26 21 17 13 8 4
8 12 23 38 37 14 19 28 24 21 21 14 7 15 32 25 20 33 30 7 14 36 46 52 57 58 60 59 57 52 47 48 47 44 41 36 34 30 26 21 17 13 9 5
8 13 28 33 22 27 41 44 27 28 30 25 32 43 31 35 18 28 28 35 11 29 39 39 53 54 58 61 57 51 49 50 49 44 41 38 35 31 27 23 18 15 10 7
8 6 3 22 23 20 16 11 6 12 19 25 26 38 24 14 26 32 38 31 31 26 45 53 51 55 56 58 55 48 50 51 52 46 45 44 39 34 28 25 21 17 12 9
18 5 8 13 9 6 18 15 12 14 9 27 27 30 30 46 52 52 35 21 30 30 31 51 58 53 60 55 52 58 58 55 55 59 56 49 44 36 32 28 22 19 14 10
25 17 8 6 10 16 26 21 11 12 9 28 29 36 54 76 34 23 64 53 38 32 40 48 46 55 54 61 72 68 63 63 64 64 59 55 47 40 35 30 26 19 14 10
5 15 7 4 7 8 9 15 38 22 13 22 31 33 37 58 23 16 77 65 51 41 33 25 27 42 59 69 72 73 73 72 72 69 66 57 48 42 39 33 25 18 13 9
9 9 6 12 10 10 7 17 29 9 15 39 26 37 47 26 33 62 75 68 58 56 44 33 26 24 35 50 71 77 82 84 71 70 66 58 53 49 42 34 26 18 10 8
10 6 9 4 3 15 11 23 6 18 41 33 34 40 37 47 62 66 72 73 68 63 57 50 48 33 23 34 56 79 88 82 70 70 70 64 59 54 45 34 27 17 13 13
7 13 10 16 12 20 50 43 68 51 44 55 61 54 38 57 64 65 68 67 70 64 58 53 51 51 36 30 44 68 88 82 75 76 76 69 63 56 44 35 25 18 16 15
11 33 14 26 36 36 51 67 62 49 56 59 51 37 54 51 56 70 70 66 69 64 60 52 50 50 49 38 40 56 69 80 82 81 80 75 69 56 45 34 23 22 17 14
23 11 30 26 35 57 58 65 64 53 47 45 47 54 57 58 72 72 72 66 65 70 69 54 50 48 45 42 45 46 58 69 83 85 86 80 67 54 42 30 26 22 15 13
41 39 25 30 57 42 51 70 73 69 71 65 63 65 66 65 72 72 73 71 65 64 68 53 46 40 32 39 42 44 53 61 74 90 89 78 65 52 38 32 28 23 16 14
Wind_Direction_850mb
213 190 212 202 209 209 205 216 230 269 245 164 226 248 253 255 233 237 234 223 217 220 219 216 212 202 202 212 209 209 209 212 213 205 204 200 216 218 217 225 236 238 233 243
301 246 239 231 226 229 245 255 256 271 191 186 263 256 248 248 232 227 229 226 222 223 216 212 212 205 204 206 211 210 211 214 215 218 214 213 220 212 217 223 223 225 239 260
210 230 49 221 249 233 230 231 213 225 201 251 354 274 241 241 237 238 232 234 230 224 215 211 208 203 207 208 212 210 208 214 209 214 200 197 205 208 211 214 217 229 247 263
249 243 250 257 233 220 254 200 188 207 125 238 174 272 247 229 236 221 227 220 228 228 227 218 207 203 206 208 212 210 209 206 201 206 207 224 215 208 212 212 218 229 244 251
273 356 349 258 240 192 246 197 205 200 163 82 234 346 258 226 237 229 222 219 220 217 216 207 208 210 206 208 204 203 203 202 205 207 211 203 203 204 208 210 219 225 231 243
267 289 270 258 326 329 84 28 28 60 105 237 229 184 257 210 211 237 213 225 221 208 204 207 208 205 200 198 197 197 197 196 200 198 203 204 203 203 203 209 212 212 216 229
294 248 221 191 251 338 105 103 234 234 226 233 172 179 247 251 264 231 228 228 220 207 206 199 195 195 193 193 192 195 197 193 193 193 192 193 197 201 202 203 200 200 207 228
281 325 57 273 230 208 196 188 201 217 195 229 70 207 243 236 247 250 255 245 205 191 192 192 194 193 192 192 192 193 194 191 187 187 187 189 193 196 194 190 189 190 196 211
299 252 330 62 347 39 218 237 286 323 173 240 223 275 294 235 249 116 151 166 173 178 183 187 188 189 189 189 192 196 190 186 182 184 187 188 190 186 183 182 181 182 186 210
306 289 228 200 145 174 219 325 273 201 228 238 237 259 244 334 281 278 176 160 167 173 181 187 187 186 188 194 196 191 186 184 182 184 186 187 182 178 178 178 177 180 182 174
297 245 300 345 215 210 154 246 241 284 250 259 221 260 243 299 309 239 206 183 173 178 184 184 184 187 193 194 189 184 184 184 183 185 185 182 179 178 177 176 175 171 169 157
304 295 287 260 244 347 274 220 209 234 238 242 324 260 340 1 352 313 209 185 182 184 183 184 188 193 192 189 187 185 186 187 188 186 182 181 181 178 177 174 173 170 153 117
333 306 325 322 352 39 245 295 261 277 268 238 293 220 16 33 23 23 29 176 181 181 185 189 192 193 189 189 190 189 189 189 189 185 184 183 181 180 179 179 171 158 142 123
3 320 285 331 317 306 298 305 298 257 264 268 242 260 242 24 15 354 6 190 178 177 180 183 191 194 193 192 192 192 192 194 190 188 187 186 184 185 181 174 168 167 169 175
31 284 310 314 311 319 314 328 302 285 293 269 333 304 292 303 318 327 309 40 194 185 185 189 195 199 197 197 198 198 199 195 193 191 190 189 188 186 183 180 180 187 194 207
283 275 302 282 300 317 321 305 271 256 258 260 277 284 284 282 244 248 258 291 265 211 202 218 209 209 206 203 203 204 204 198 196 195 194 193 193 192 187 185 195 204 214 228
236 240 301 280 291 314 305 256 323 321 290 281 278 279 303 264 231 241 241 254 256 239 220 214 227 222 219 217 213 213 205 200 200 200 200 200 196 193 191 196 202 213 218 232
241 214 241 265 3 233 237 257 283 272 333 21 12 357 354 341 273 255 261 256 253 265 252 236 238 232 232 226 234 227 217 211 211 207 203 200 198 194 197 200 206 214 223 238
221 238 243 205 213 280 308 295 339 307 55 27 4 350 348 347 324 64 6 357 358 338 297 273 260 252 226 236 233 231 218 216 212 209 205 203 196 195 198 199 206 213 223 239
349 219 193 227 229 295 272 359 319 291 241 16 3 357 353 349 355 329 332 351 353 355 345 335 285 264 249 239 235 230 217 215 214 211 209 201 194 195 196 198 200 209 220 233
336 344 194 268 276 256 250 325 335 278 331 318 350 338 331 327 312 312 324 331 335 341 344 339 323 288 255 243 233 228 220 214 217 215 208 199 195 193 194 198 203 209 231 266
271 240 265 60 50 297 232 344 346 290 303 301 321 319 304 314 317 323 325 328 327 327 323 327 328 307 286 251 232 227 226 222 215 215 206 199 195 193 198 201 207 219 247 277
245 203 240 189 224 268 292 282 287 284 272 295 303 306 298 313 313 317 315 319 324 321 319 316 313 315 296 268 244 233 232 221 214 212 204 199 195 196 200 206 212 229 249 276
255 252 257 273 266 266 274 283 284 286 285 287 293 288 304 299 307 310 310 310 318 323 320 317 308 306 298 283 259 246 233 224 217 211 202 198 196 196 200 205 221 237 246 270
255 257 255 261 273 272 272 275 282 289 289 285 285 293 294 297 298 299 299 307 309 316 322 310 302 297 293 278 265 244 233 222 218 211 202 196 194 198 202 215 231 238 238 265
251 250 256 258 261 264 272 279 282 283 288 288 286 289 285 282 285 291 292 291 298 306 314 303 292 288 283 275 259 237 224 218 210 202 198 193 195 198 209 221 230 224 230 251